Driggs, ID

5:56 PM MDT on April 26, 2017 (GMT -0600)
Driggs

Weather History for KDIJ - December, 2012

Change the Weather History Date:

Friday, December 7, 2012

  Actual Average (KJAC) Record (KJAC)
Temperature  
Mean Temperature 26 °F -  
Max Temperature 29 °F 27 °F 46 °F (1987)
Min Temperature 24 °F 4 °F -27 °F (2005)
Degree Days  
Heating Degree Days 38    
Moisture  
Dew Point 20 °F    
Average Humidity 75    
Maximum Humidity 86    
Minimum Humidity 61    
Precipitation  
Precipitation 0.00 in - - ()
Sea Level Pressure  
Sea Level Pressure 29.93 in    
Wind  
Wind Speed 11 mph (SSW)    
Max Wind Speed 28 mph    
Max Gust Speed -    
Visibility 9 miles    
Events Snow    
Averages and records for this station are not official NWS values.
T = Trace of Precipitation, MM = Missing Value Source: NWS Daily Summary

Daily Weather History Graph

Daily Weather History Graph

Search for Another Location

Airport or City:

Trip Planner

Search our weather history database for the weather conditions in past years. The results will help you decide how hot, cold, wet, or windy it might be!

Date:

Astronomy

Dec. 07, 2012 Rise Set
Actual Time 7:45 AM MST 4:47 PM MST
Civil Twilight 7:12 AM MST 5:19 PM MST
Nautical Twilight 6:36 AM MST 5:55 PM MST
Astronomical Twilight 6:01 AM MST 6:30 PM MST
Moon 12:57 AM MST (12/7) 12:55 PM MST (12/7)
Length of Visible Light 10h 07m
Length of Day
9h 02m
Last Quarter, 38% of the Moon is Illuminated
Dec 7
Last Quarter
Dec 13
New
Dec 19
First Quarter
Dec 28
Full
Jan 4
Last Quarter

Hourly Weather History & Observations

Time (MST) Temp. Windchill Dew Point Humidity Pressure Visibility Wind Dir Wind Speed Gust Speed Precip Events Conditions
12:56 AM 29.1 °F 18.4 °F 24.1 °F 81% 29.90 in 10.0 mi SW 13.8 mph - N/A   Overcast
1:56 AM 28.0 °F 16.1 °F 22.1 °F 78% 29.91 in 10.0 mi WSW 16.1 mph - N/A   Overcast
2:56 AM 28.0 °F 18.6 °F 22.1 °F 78% 29.93 in 10.0 mi SW 10.4 mph - N/A   Overcast
3:56 AM 27.1 °F 18.9 °F 21.0 °F 78% 29.93 in 10.0 mi WSW 8.1 mph - N/A   Overcast
4:18 AM 26.6 °F 16.8 °F 19.4 °F 74% 29.94 in 10.0 mi WSW 10.4 mph - N/A   Scattered Clouds
4:56 AM 27.1 °F 19.7 °F 20.1 °F 75% 29.93 in 10.0 mi WSW 6.9 mph - N/A   Mostly Cloudy
5:56 AM 27.1 °F 18.2 °F 20.1 °F 75% 29.94 in 10.0 mi SW 9.2 mph - N/A   Mostly Cloudy
6:56 AM 26.1 °F 18.4 °F 19.0 °F 75% 29.96 in 10.0 mi WSW 6.9 mph - N/A   Overcast
7:56 AM 26.1 °F 18.4 °F 19.0 °F 75% 29.97 in 10.0 mi SW 6.9 mph - N/A   Mostly Cloudy
8:56 AM 26.1 °F 16.8 °F 19.0 °F 75% 29.99 in 10.0 mi South 9.2 mph - N/A   Mostly Cloudy
9:42 AM 26.6 °F 15.7 °F 19.4 °F 74% 30.00 in 10.0 mi SSW 12.7 mph - N/A   Scattered Clouds
9:56 AM 26.1 °F 16.2 °F 18.1 °F 72% 30.00 in 10.0 mi South 10.4 mph - N/A   Partly Cloudy
10:56 AM 27.1 °F 18.9 °F 18.1 °F 69% 30.02 in 10.0 mi South 8.1 mph - N/A   Partly Cloudy
11:56 AM 28.0 °F 18.1 °F 18.1 °F 66% 30.00 in 10.0 mi South 11.5 mph - N/A   Mostly Cloudy
12:56 PM 27.1 °F 15.4 °F 19.0 °F 72% 29.99 in 10.0 mi SSW 15.0 mph - N/A   Scattered Clouds
1:56 PM 28.0 °F 20.0 °F 18.1 °F 66% 29.97 in 10.0 mi South 8.1 mph - N/A   Mostly Cloudy
2:56 PM 28.0 °F 17.5 °F 17.1 °F 63% 29.95 in 10.0 mi SSW 12.7 mph - N/A   Overcast
3:56 PM 26.1 °F 15.0 °F 20.1 °F 78% 29.96 in 10.0 mi South 12.7 mph - N/A   Mostly Cloudy
4:20 PM 26.6 °F 16.8 °F 21.2 °F 80% 29.93 in 5.0 mi SSE 10.4 mph - 0.00 in Snow Light Snow
4:26 PM 24.8 °F 14.0 °F 21.2 °F 86% 29.93 in 2.5 mi South 11.5 mph - 0.00 in Snow Light Snow
4:34 PM 24.8 °F 15.3 °F 21.2 °F 86% 29.93 in 1.8 mi South 9.2 mph - 0.00 in Snow Light Snow
4:37 PM 24.8 °F 16.9 °F 21.2 °F 86% 29.93 in 3.0 mi South 6.9 mph - 0.00 in Snow Light Snow
4:56 PM 25.2 °F 18.3 °F 21.0 °F 84% 29.95 in 9.0 mi SSE 5.8 mph - 0.00 in Snow Light Snow
5:23 PM 24.8 °F 19.1 °F 21.2 °F 86% 29.92 in 2.5 mi South 4.6 mph - 0.00 in Snow Light Snow
5:33 PM 24.8 °F 19.1 °F 21.2 °F 86% 29.91 in 5.0 mi SE 4.6 mph - 0.00 in Snow Light Snow
5:56 PM 26.1 °F 16.2 °F 19.0 °F 75% 29.92 in 10.0 mi South 10.4 mph - 0.00 in   Overcast
6:04 PM 26.6 °F 15.2 °F 19.4 °F 74% 29.90 in 10.0 mi SSW 13.8 mph - N/A   Overcast
6:56 PM 27.1 °F 16.4 °F 18.1 °F 69% 29.91 in 10.0 mi SSW 12.7 mph - N/A   Overcast
7:56 PM 28.0 °F 19.3 °F 17.1 °F 63% 29.88 in 10.0 mi South 9.2 mph - N/A   Overcast
8:56 PM 28.0 °F 17.0 °F 16.2 °F 61% 29.85 in 10.0 mi SW 13.8 mph - N/A   Mostly Cloudy
9:56 PM 28.0 °F 16.1 °F 16.2 °F 61% 29.83 in 10.0 mi SW 16.1 mph - N/A   Mostly Cloudy
10:56 PM 27.1 °F 11.6 °F 18.1 °F 69% 29.81 in 10.0 mi SW 27.6 mph - N/A   Partly Cloudy
11:23 PM 26.6 °F 12.0 °F 17.6 °F 69% 29.80 in 10.0 mi SW 23.0 mph - 0.00 in Snow Light Snow
11:56 PM 25.2 °F 14.4 °F 20.1 °F 81% 29.80 in 3.0 mi SW 11.5 mph - 0.00 in Snow Light Snow